1321574428667,181.375
1321574488667,181.580
1321574548667,181.914
1321574608667,181.154
1321574668667,181.587
1321574728667,181.110
1321574788667,181.412
1321574848667,181.254
1321574908667,181.398
1321574968667,181.370
1321575028667,181.557
1321575088667,181.420
1321575148667,181.343
1321575208667,181.324
1321575268667,181.145
1321575328667,181.064
1321575388667,181.490
1321575448667,181.280
1321575508667,181.061
1321575568667,181.335
1321575628667,181.128
1321575688667,181.597
1321575748667,181.154
1321575808667,180.993
1321575868667,181.432
1321575928667,181.194
1321575988667,181.437
1321576048667,181.216
1321576108667,181.142
1321576168667,181.134
1321576228667,181.187
1321576288667,180.932
1321576348667,181.162
1321576408667,180.647
1321576468667,181.005
1321576528667,181.010
1321576588667,180.858
1321576648667,181.204
1321576708667,180.488
1321576768667,180.570
1321576828667,180.365
1321576888667,180.755
1321576948667,180.372
1321577008667,180.507
1321577068667,180.721
1321577128667,180.343
1321577188667,180.291
1321577248667,180.630
1321577308667,180.562
1321577368667,180.868
1321577428667,180.957
1321577488667,180.856
1321577548667,180.695
1321577608667,181.037
1321577668667,180.913
1321577728667,180.901
1321577788667,180.764
1321577848667,181.118
1321577908667,181.102
1321577968667,180.846
1321578028678,181.250
1321578088678,181.114
1321578148678,181.236
1321578208678,181.089
1321578268678,180.759
1321578328678,181.248
1321578388678,181.522
1321578448678,181.399
1321578508678,181.239
1321578568678,181.124
1321578628678,180.927
1321578688678,181.033
1321578748678,181.541
1321578808678,182.011
1321578868678,181.631
1321578928678,181.617
1321578988678,181.361
1321579048678,181.200
1321579108678,181.406
1321579168678,181.168
1321579228678,181.345
1321579288678,180.901
1321579348678,180.716
1321579408678,181.081
1321579468678,181.007
1321579528678,181.175
1321579588678,181.005
1321579648678,181.022
1321579708678,180.939
1321579768678,180.853
1321579828678,181.062
1321579888678,181.259
1321579948678,180.772
1321580008678,180.972
1321580068678,181.268
1321580128678,181.090
1321580188678,181.027
1321580248678,180.949
1321580308678,181.052
1321580368678,180.671
1321580428678,180.940
1321580488678,181.129
1321580548678,180.746
1321580608678,180.974
1321580668678,181.322
1321580728678,181.472
1321580788678,181.055
1321580848678,181.042
1321580908678,181.453
1321580968678,181.263
1321581028678,181.488
1321581088678,181.357
1321581148678,181.531
1321581208678,181.554
1321581268678,181.560
1321581328678,181.619
1321581388678,181.138
1321581448678,181.509
1321581508678,181.531
1321581568678,181.304
1321581628688,181.621
1321581688688,181.270
1321581748688,181.231
1321581808688,181.458
1321581868688,180.970
1321581928688,181.205
1321581988688,180.985
1321582048688,180.786
1321582108688,180.912
1321582168688,181.004
1321582228688,180.805
1321582288688,180.768
1321582348688,180.514
1321582408688,180.763
1321582468688,180.291
1321582528688,180.032
1321582588688,180.343
1321582648688,180.376
1321582708688,180.230
1321582768688,179.991
1321582828688,180.059
1321582888688,179.820
1321582948688,180.059
1321583008688,179.922
1321583068688,179.734
1321583128688,180.068
1321583188688,179.762
1321583248688,179.921
1321583308688,180.024
1321583368688,179.902
1321583428688,180.007
1321583488688,179.842
1321583548688,179.626
1321583608688,179.433
1321583668688,179.564
1321583728688,179.695
1321583788688,179.504
1321583848688,179.561
1321583908688,179.521
1321583968688,179.506
1321584028688,179.292
1321584088688,179.548
1321584148688,179.267
1321584208688,178.897
1321584268688,179.256
1321584328688,179.032
1321584388688,178.839
1321584448688,179.034
1321584508688,179.186
1321584568688,179.256
1321584628688,178.858
1321584688688,178.793
1321584748688,179.206
1321584808688,179.085
1321584868688,178.789
1321584928688,178.887
1321584988688,179.169
1321585048688,178.747
1321585108688,179.171
1321585168688,178.710
1321585228698,178.835
1321585288698,179.190
1321585348698,178.933
1321585408698,178.968
1321585468698,179.082
1321585528698,178.834
1321585588698,178.981
1321585648698,178.605
1321585708698,178.839
1321585768698,178.863
1321585828698,178.637
1321585888698,178.784
1321585948698,179.009
1321586008698,178.758
1321586068698,178.721
1321586128698,179.269
1321586188698,178.883
1321586248698,178.759
1321586308698,179.028
1321586368698,178.924
1321586428698,178.743
1321586488698,178.906
1321586548698,179.058
1321586608698,178.871
1321586668698,178.825
1321586728698,179.004
1321586788698,178.984
1321586848698,179.108
1321586908698,178.727
1321586968698,178.693
1321587028698,179.053
1321587088698,178.896
1321587148698,179.026
1321587208698,178.780
1321587268698,179.341
1321587328698,179.390
1321587388698,179.021
1321587448698,179.503
1321587508698,179.261
1321587568698,179.471
1321587628698,179.656
1321587688698,179.319
1321587748698,179.158
1321587808698,179.430
1321587868698,179.541
1321587928698,179.358
1321587988698,179.079
1321588048698,179.071
1321588108698,179.408
1321588168698,179.416
1321588228698,179.228
1321588288698,179.645
1321588348698,179.509
1321588408698,179.372
1321588468698,179.493
1321588528698,179.148
1321588588698,179.177
1321588648698,179.383
1321588708698,178.996
1321588768698,179.342
1321588828708,179.171
1321588888708,179.098
1321588948708,179.157
1321589008708,178.980
1321589068708,178.992
1321589128708,179.091
1321589188708,179.150
1321589248708,178.978
1321589308708,179.336
1321589368708,179.189
1321589428708,179.166
1321589488708,179.205
1321589548708,179.294
1321589608708,178.920
1321589668708,179.188
1321589728708,179.406
1321589788708,179.535
1321589848708,179.662
1321589908708,179.386
1321589968708,179.071
1321590028708,179.499
1321590088708,179.697
1321590148708,179.356
1321590208708,179.353
1321590268708,179.718
1321590328708,179.475
1321590388708,179.588
1321590448708,179.277
1321590508708,179.791
1321590568708,179.653
1321590628708,179.463
1321590688708,179.305
1321590748708,179.545
1321590808708,179.402
1321590868708,179.425
1321590928708,179.389
1321590988708,179.354
1321591048708,179.148
1321591108708,178.842
1321591168708,179.156
1321591228708,179.257
1321591288708,179.168
1321591348708,178.623
1321591408708,179.351
1321591468708,178.732
1321591528708,178.743
1321591588708,179.055
1321591648708,178.635
1321591708708,178.603
1321591768708,178.807
1321591828708,178.600
1321591888708,178.617
1321591948708,178.563
1321592008708,178.712
1321592068708,178.730
1321592128708,178.847
1321592188708,178.950
1321592248708,178.778
1321592308708,178.931
1321592368708,179.097
1321592428718,178.896
1321592488718,178.650
1321592548718,178.727
1321592608718,178.935
1321592668718,178.936
1321592728718,179.106
1321592788718,178.868
1321592848718,179.217
1321592908718,178.961
1321592968718,179.026
1321593028718,179.171
1321593088718,179.460
1321593148718,179.415
1321593208718,179.235
1321593268718,179.725
1321593328718,179.506
1321593388718,179.528
1321593448718,179.459
1321593508718,180.020
1321593568718,179.709
1321593628718,179.561
1321593688718,179.810
1321593748718,179.602
1321593808718,179.476
1321593868718,179.736
1321593928718,180.034
1321593988718,180.123
1321594048718,180.185
1321594108718,180.236
1321594168718,180.188
1321594228718,179.979
1321594288718,180.404
1321594348718,180.323
1321594408718,180.326
1321594468718,180.311
1321594528718,180.784
1321594588718,180.752
1321594648718,180.364
1321594708718,180.864
1321594768718,180.676
1321594828718,180.917
1321594888718,180.917
1321594948718,180.782
1321595008718,181.011
1321595068718,181.191
1321595128718,181.305
1321595188718,181.368
1321595248718,180.964
1321595308718,181.277
1321595368718,181.179
1321595428718,181.608
1321595488718,181.673
1321595548718,181.080
1321595608718,181.637
1321595668718,181.462
1321595728718,182.019
1321595788718,181.744
1321595848718,181.670
1321595908718,181.669
1321595968718,181.685
1321596028729,181.846
1321596088729,181.543
1321596148729,182.155
1321596208729,181.893
1321596268729,182.083
1321596328729,182.205
1321596388729,181.895
1321596448729,182.352
1321596508729,181.847
1321596568729,182.043
1321596628729,182.199
1321596688729,182.430
1321596748729,182.437
1321596808729,182.199
1321596868729,182.697
1321596928729,182.340
1321596988729,182.353
1321597048729,182.245
1321597108729,182.183
1321597168729,182.639
1321597228729,182.225
1321597288729,182.298
1321597348729,182.343
1321597408729,182.303
1321597468729,182.488
1321597528729,182.540
1321597588729,182.313
1321597648729,182.586
1321597708729,182.329
1321597768729,182.243
1321597828729,182.762
1321597888729,182.386
1321597948729,182.208
1321598008729,182.740
1321598068729,182.673
1321598128729,182.567
1321598188729,182.712
1321598248729,182.523
1321598308729,182.422
1321598368729,182.608
1321598428729,182.630
1321598488729,182.508
1321598548729,182.380
1321598608729,182.561
1321598668729,182.332
1321598728729,182.616
1321598788729,182.440
1321598848729,182.106
1321598908729,182.625
1321598968729,182.848
1321599028729,182.637
1321599088729,182.647
1321599148729,182.690
1321599208729,182.953
1321599268729,182.562
1321599328729,182.804
1321599388729,182.717
1321599448729,182.546
1321599508729,182.262
1321599568729,182.272
1321599628739,182.344
1321599688739,182.513
1321599748739,182.600
1321599808739,182.553
1321599868739,182.483
1321599928739,182.580
1321599988739,182.231
1321600048739,182.557
1321600108739,182.949
1321600168739,182.538
1321600228739,182.547
1321600288739,183.173
1321600348739,182.980
1321600408739,182.692
1321600468739,182.882
1321600528739,182.939
1321600588739,182.834
1321600648739,182.900
1321600708739,183.367
1321600768739,183.396
1321600828739,183.313
1321600888739,183.195
1321600948739,183.217
1321601008739,183.394
1321601068739,183.149
1321601128739,183.292
1321601188739,183.288
1321601248739,183.752
1321601308739,183.446
1321601368739,183.611
1321601428739,183.539
1321601488739,183.996
1321601548739,183.691
1321601608739,184.176
1321601668739,184.331
1321601728739,183.929
1321601788739,184.393
1321601848739,184.195
1321601908739,183.943
1321601968739,183.978
1321602028739,184.174
1321602088739,183.949
1321602148739,184.085
1321602208739,184.142
1321602268739,183.685
1321602328739,183.590
1321602388739,183.936
1321602448739,183.814
1321602508739,184.149
1321602568739,184.045
1321602628739,185.064
1321602688739,184.413
1321602748739,183.881
1321602808739,183.989
1321602868739,184.438
1321602928739,184.180
1321602988739,184.140
1321603048739,184.045
1321603108739,184.376
1321603168739,184.418
1321603228750,184.121
1321603288750,184.287
1321603348750,184.042
1321603408750,184.025
1321603468750,184.465
1321603528750,184.643
1321603588750,184.019
1321603648750,184.313
1321603708750,184.361
1321603768750,184.173
1321603828750,184.449
1321603888750,184.142
1321603948750,183.965
1321604008750,184.313
1321604068750,184.563
1321604128750,184.157
1321604188750,184.089
1321604248750,184.182
1321604308750,184.440
1321604368750,184.097
1321604428750,184.260
1321604488750,184.829
1321604548750,184.048
1321604608750,184.079
1321604668750,184.172
1321604728750,184.382
1321604788750,184.541
1321604848750,184.134
1321604908750,184.423
1321604968750,184.087
1321605028750,184.525
1321605088750,184.492
1321605148750,184.079
1321605208750,184.442
1321605268750,184.257
1321605328750,184.231
1321605388750,184.512
1321605448750,184.352
1321605508750,184.504
1321605568750,184.337
1321605628750,184.451
1321605688750,184.325
1321605748750,184.282
1321605808750,184.521
1321605868750,184.200
1321605928750,184.252
1321605988750,184.418
1321606048750,184.103
1321606108750,184.117
1321606168750,184.444
1321606228750,184.153
1321606288750,184.003
1321606348750,184.087
1321606408750,184.136
1321606468750,184.313
1321606528750,184.427
1321606588750,184.487
1321606648750,184.511
1321606708750,184.150
1321606768750,184.454
1321606828761,183.928
1321606888761,184.142
1321606948761,184.478
1321607008761,184.068
1321607068761,184.211
1321607128761,184.231
1321607188761,184.218
1321607248761,184.141
1321607308761,184.058
1321607368761,184.199
1321607428761,184.241
1321607488761,183.718
1321608028761,184.162
1321608088761,184.073
1321608148761,183.663
1321608208761,184.200
1321608268761,183.742
1321608328761,183.599
1321608388761,183.759
1321608448761,183.718
1321608508761,184.127
1321608568761,183.689
1321608628761,184.073
1321608688761,183.827
1321608748761,183.986
1321608808761,184.076
1321608868761,183.616
1321608928761,184.151
1321608988761,184.015
1321609048761,183.924
1321609108761,183.696
1321609168761,184.047
1321609228761,183.919
1321609288761,184.128
1321609348761,183.772
1321609408761,184.120
1321609468761,183.805
1321609528761,184.243
1321609588761,183.801
1321609648761,183.281
1321609708761,183.291
1321609768761,183.346
1321609828761,183.641
1321609888761,183.635
1321609948761,183.486
1321610008761,183.030
1321610068761,183.699
1321610128761,183.191
1321610188761,183.526
1321610248761,183.378
1321610308761,183.311
1321610368761,183.561
1321610428773,183.279
1321610488773,182.961
1321610548773,183.424
1321610608773,183.530
1321610668773,183.432
1321610728773,183.698
1321610788773,183.094
1321610848773,183.285
1321610908773,183.421
1321610968773,183.103
1321611028773,183.109
1321611088773,183.438
1321611148773,183.082
1321611208773,182.974
1321611268773,183.335
1321611328773,182.962
1321611388773,183.013
1321611448773,183.241
1321611508773,182.889
1321611568773,183.059
1321611628773,182.668
1321611688773,183.089
1321611748773,183.077
1321611808773,182.679
1321611868773,183.047
1321611928773,183.117
1321611988773,183.317
1321612048773,183.499
1321612108773,183.205
1321612168773,183.222
1321612228773,182.968
1321612288773,183.413
1321612348773,183.075
1321612408773,183.184
1321612468773,183.392
1321612528773,183.101
1321612588773,182.982
1321612648773,183.352
1321612708773,183.150
1321612768773,183.160
1321612828773,183.049
1321612888773,183.189
1321612948773,183.136
1321613008773,183.473
1321613068773,183.156
1321613128773,183.186
1321613188773,183.149
1321613248773,183.293
1321613308773,183.377
1321613368773,183.208
1321613428773,182.887
1321613488773,182.894
1321613548773,183.441
1321613608773,183.195
1321613668773,183.017
1321613728773,183.106
1321613788773,183.193
1321613848773,183.004
1321613908773,183.191
1321613968773,183.116
1321614028784,183.126
1321614088784,183.220
1321614148784,183.247
1321614208784,182.840
1321614268784,183.094
1321614328784,183.261
1321614388784,182.894
1321614448784,183.115
1321614508784,182.887
1321614568784,183.236
1321614628784,182.900
1321614688784,182.929
1321614748784,183.255
1321614808784,183.221
1321614868784,183.075
1321614928784,183.154
1321614988784,182.909
1321615048784,182.967
1321615108784,183.134
1321615168784,183.367
1321615228784,183.002
1321615288784,183.328
1321615348784,183.385
1321615408784,183.353
1321615468784,183.195
1321615528784,183.275
1321615588784,182.949
1321615648784,183.184
1321615708784,183.410
1321615768784,183.258
1321615828784,182.658
1321615888784,183.196
1321615948784,183.186
1321616008784,182.943
1321616068784,183.294
1321616128784,182.786
1321616188784,182.936
1321616248784,183.050
1321616308784,182.878
1321616368784,183.113
1321616428784,183.153
1321616488784,182.917
1321616548784,182.786
1321616608784,182.781
1321616668784,182.842
1321616728784,182.541
1321616788784,182.723
1321616848784,182.906
1321616908784,182.871
1321616968784,182.852
1321617028784,183.186
1321617088784,183.338
1321617148784,183.190
1321617208784,183.335
1321617268784,183.162
1321617328784,182.996
1321617388784,183.135
1321617448784,183.363
1321617508784,183.301
1321617568784,183.433
1321617628796,183.350
1321617688796,183.295
1321617748796,183.602
1321617808796,183.495
1321617868796,183.055
1321617928796,183.493
1321617988796,183.228
1321618048796,182.872
1321618108796,183.070
1321618168796,183.290
1321618228796,183.206
1321618288796,183.102
1321618348796,183.200
1321618408796,183.294
1321618468796,183.216
1321618528796,183.085
1321618588796,183.061
1321618648796,183.348
1321618708796,183.428
1321618768796,183.147
1321618828796,183.382
1321618888796,183.374
1321618948796,183.367
1321619008796,183.170
1321619068796,183.306
1321619128796,183.168
1321619188796,183.102
1321619248796,182.925
1321619308796,183.219
1321619368796,183.321
1321619428796,183.359
1321619488796,183.026
1321619548796,183.214
1321619608796,183.307
1321619668796,183.633
1321619728796,183.642
1321619788796,183.625
1321619848796,183.437
1321619908796,183.224
1321619968796,183.365
1321620028796,183.448
1321620088796,183.598
1321620148796,183.539
1321620208796,183.643
1321620268796,183.364
1321620328796,183.538
1321620388796,183.556
1321620448796,183.578
1321620508796,184.050
1321620568796,183.873
1321620628796,183.928
1321620688796,183.525
1321620748796,183.733
1321620808796,183.668
1321620868796,183.365
1321620928796,183.771
1321620988796,183.466
1321621048796,183.744
1321621108796,183.752
1321621168796,184.057
1321621228808,183.653
1321621288808,183.821
1321621348808,183.542
1321621408808,183.809
1321621468808,183.521
1321621528808,183.645
1321621588808,183.458
1321621648808,183.645
1321621708808,183.564
1321621768808,183.619
1321621828808,183.528
1321621888808,183.585
1321621948808,183.024
1321622008808,183.447
1321622068808,183.358
1321622128808,183.294
1321622188808,183.365
1321622248808,183.482
1321622308808,183.567
1321622368808,183.202
1321622428808,183.383
1321622488808,183.424
1321622548808,183.355
1321622608808,183.344
1321622668808,183.098
1321622728808,183.354
1321622788808,183.613
1321622848808,183.429
1321622908808,183.650
1321622968808,183.543
1321623028808,183.292
1321623088808,183.013
1321623148808,183.250
1321623208808,183.331
1321623268808,183.233
1321623328808,183.384
1321623388808,183.769
1321623448808,183.297
1321623508808,183.221
1321623568808,183.304
1321623628808,183.318
1321623688808,184.147
1321623748808,183.321
1321623808808,183.146
1321623868808,183.423
1321623928808,183.179
1321623988808,183.138
1321624048808,183.465
1321624108808,183.571
1321624168808,183.438
1321624228808,183.355
1321624288808,183.663
1321624348808,183.377
1321624408808,183.624
1321624468808,183.526
1321624528808,183.557
1321624588808,183.591
1321624648808,183.537
1321624708808,183.268
1321624768808,183.586
1321624828821,183.623
1321624888821,183.619
1321624948821,183.688
1321625008821,183.726
1321625068821,183.477
1321625128821,184.104
1321625188821,183.561
1321625248821,183.375
1321625308821,183.436
1321625368821,183.343
1321625428821,183.246
1321625488821,183.098
1321625548821,183.408
1321625608821,183.324
1321625668821,183.359
1321625728821,183.528
1321625788821,183.650
1321625848821,183.276
1321625908821,183.461
1321625968821,183.432
1321626028821,183.328
1321626088821,183.515
1321626148821,183.823
1321626208821,183.556
1321626268821,183.529
1321626328821,183.920
1321626388821,183.541
1321626448821,183.700
1321626508821,184.037
1321626568821,183.749
1321626628821,183.850
1321626688821,183.764
1321626748821,183.736
1321626808821,183.218
1321626868821,183.672
1321626928821,183.702
1321626988821,183.576
1321627048821,183.846
1321627108821,183.470
1321627168821,183.250
1321627228821,183.487
1321627288821,183.717
1321627348821,183.484
1321627408821,183.621
1321627468821,183.483
1321627528821,183.918
1321627588821,183.499
1321627648821,183.502
1321627708821,183.452
1321627768821,183.558
1321627828821,183.577
1321627888821,183.686
1321627948821,183.659
1321628008821,183.618
1321628068821,183.433
1321628128821,183.553
1321628188821,183.604
1321628248821,183.619
1321628308821,183.690
1321628368821,183.699
1321628428833,183.954
1321628488833,183.829
1321628548833,183.988
1321628608833,183.858
1321628668833,183.939
1321628728833,183.849
1321628788833,183.799
1321628848833,183.802
1321628908833,183.916
1321628968833,183.817
1321629028833,184.260
1321629088833,183.268
1321629148833,183.961
1321629208833,183.527
1321629268833,183.923
1321629328833,183.894
1321629388833,183.815
1321629448833,183.769
1321629508833,183.908
1321629568833,183.854
1321629628833,183.743
1321629688833,184.103
1321629748833,184.039
1321629808833,184.043
1321629868833,183.984
1321629928833,184.123
1321629988833,183.852
1321630048833,183.702
1321630108833,183.986
1321630168833,184.030
1321630228833,183.616
1321630288833,184.037
1321630348833,184.209
1321630408833,183.986
1321630468833,183.788
1321630528833,183.977
1321630588833,183.838
1321630648833,184.154
1321630708833,183.930
1321630768833,184.215
1321630828833,184.398
1321630888833,184.321
1321630948833,184.354
1321631008833,184.583
1321631068833,184.483
1321631128833,184.241
1321631188833,184.423
1321631248833,184.422
1321631308833,184.568
1321631368833,184.312
1321631428833,184.197
1321631488833,184.670
1321631548833,184.569
1321631608833,184.018
1321631668833,184.545
1321631728833,184.342
1321631788833,183.856
1321631848833,184.615
1321631908833,184.352
1321631968833,184.455
1321632028845,184.384
1321632088845,184.571
1321632148845,184.593
1321632208845,184.340
1321632268845,184.528
1321632328845,184.811
1321632388845,184.567
1321632448845,184.539
1321632508845,184.561
1321632568845,184.429
1321632628845,184.524
1321632688845,184.250
1321632748845,184.634
1321632808845,184.319
1321632868845,184.393
1321632928845,184.330
1321632988845,184.354
1321633048845,184.736
1321633108845,184.325
1321633168845,184.505
1321633228845,184.676
1321633288845,184.900
1321633348845,184.727
1321633408845,184.962
1321633468845,184.783
1321633528845,184.710
1321633588845,184.989
1321633648845,185.124
1321633708845,184.887
1321633768845,184.582
1321633828845,184.713
1321633888845,185.186
1321633948845,184.942
1321634008845,185.311
1321634068845,184.958
1321634128845,185.354
1321634188845,184.712
1321634248845,185.144
1321634308845,185.106
1321634368845,184.979
1321634428845,185.198
1321634488845,185.385
1321634548845,185.862
1321634608845,185.725
1321634668845,185.426
1321634728845,185.849
1321634788845,185.680
1321634848845,185.881
1321634908845,185.915
1321634968845,185.943
1321635028845,185.686
1321635088845,185.921
1321635148845,185.691
1321635208845,185.972
1321635268845,185.840
1321635328845,185.653
1321635388845,185.837
1321635448845,185.597
1321635508845,185.884
1321635568845,185.705
1321635628857,186.036
1321635688857,185.958
1321635748857,185.907
1321635808857,185.964
1321635868857,185.659
1321635928857,186.022
1321635988857,186.041
1321636048857,185.554
1321636108857,185.931
1321636168857,185.931
1321636228857,185.398
1321636288857,186.121
1321636348857,185.899
1321636408857,186.166
1321636468857,186.181
1321636528857,186.017
1321636588857,185.611
1321636648857,185.614
1321636708857,185.524
1321636768857,185.707
1321636828857,185.762
1321636888857,185.779
1321636948857,185.483
1321637008857,185.632
1321637068857,185.456
1321637128857,185.711
1321637188857,185.252
1321637248857,185.417
1321637308857,185.299
1321637368857,185.396
1321637428857,185.686
1321637488857,185.213
1321637548857,185.147
1321637608857,185.314
1321637668857,185.220
1321637728857,185.023
1321637788857,185.131
1321637848857,185.040
1321637908857,184.996
1321637968857,185.253
1321638028857,185.254
1321638088857,185.370
1321638148857,185.322
1321638208857,185.272
1321638268857,185.371
1321638328857,185.415
1321638388857,185.271
1321638448857,185.464
1321638508857,185.310
1321638568857,185.202
1321638628857,185.318
1321638688857,184.850
1321638748857,185.100
1321638808857,185.002
1321638868857,185.041
1321638928857,185.167
1321638988857,184.855
1321639048857,184.833
1321639108857,184.663
1321639168857,184.492
1321639228869,184.918
1321639288869,185.023
1321639348869,184.682
1321639408869,184.893
1321639468869,184.593
1321639528869,184.827
1321639588869,184.326
1321639648869,185.001
1321639708869,185.099
1321639768869,184.780
1321639828869,184.604
1321639888869,184.619
1321639948869,184.664
1321640008869,185.011
1321640068869,184.572
1321640128869,184.965
1321640188869,185.011
1321640248869,184.894